When you browse on this site, cookies collect data to enhance your experience and personalize the content and advertising you see.
Visit our Privacy Policy to learn more. By continuing to use the site, you agree to this use of cookies and data.
  • In Czech Republic
  • List of Countries
  • For 7 days
  • Water Temperature
  • Weather Map
  • Weather Widgets
  • user-avatar
    Login

    Hourly Weather Sacapa

    Today, 22 September, Sunday

    Time Temperature Precipitation Wind Pressure Humidity
    00:00 +19°C° 0 mm 0 mps 697 mmHg 94%
    01:00 +19°C° 0 mm 0 mps 696 mmHg 94%
    02:00 +19°C° 0 mm 0 mps 696 mmHg 95%
    03:00 +19°C° 0 mm 0 mps 696 mmHg 95%
    04:00 +19°C° 0 mm 0 mps 696 mmHg 95%
    05:00 +19°C° 0 mm 0 mps 696 mmHg 95%
    06:00 +19°C° 0 mm 0 mps 696 mmHg 96%
    07:00 +21°C° 0 mm 0 mps 697 mmHg 89%
    08:00 +23°C° 0 mm 0 mps 698 mmHg 82%
    09:00 +25°C° 0 mm 0 mps 699 mmHg 75%
    10:00 +27°C° 0 mm 0 mps 698 mmHg 70%
    11:00 +28°C° 0 mm 0 mps 698 mmHg 65%
    12:00 +31°C° 0 mm 1 mps 697 mmHg 59%
    13:00 +31°C° 0.3 mm 1 mps 697 mmHg 61%
    14:00 +30°C° 0.3 mm 1 mps 696 mmHg 63%
    15:00 +30°C° 0.3 mm 1 mps 696 mmHg 64%
    16:00 +28°C° 1.5 mm 1 mps 696 mmHg 73%
    17:00 +26°C° 1.5 mm 1 mps 695 mmHg 81%
    18:00 +24°C° 1.5 mm 1 mps 695 mmHg 90%
    19:00 +22°C° 2 mm 0 mps 696 mmHg 92%
    20:00 +21°C° 2 mm 0 mps 696 mmHg 93%
    21:00 +21°C° 2 mm 0 mps 697 mmHg 94%
    22:00 +21°C° 1.6 mm 0 mps 697 mmHg 95%
    23:00 +20°C° 1.6 mm 0 mps 697 mmHg 95%

    Tomorrow, 23 September, Monday

    Time Temperature Precipitation Wind Pressure Humidity
    00:00 +20°C° 1.6 mm 0 mps 697 mmHg 96%
    01:00 +20°C° 1.1 mm 0 mps 697 mmHg 96%
    02:00 +20°C° 1.1 mm 0 mps 696 mmHg 97%
    03:00 +20°C° 1.1 mm 0 mps 696 mmHg 97%
    04:00 +20°C° 0.5 mm 0 mps 696 mmHg 97%
    05:00 +20°C° 0.5 mm 0 mps 696 mmHg 97%
    06:00 +20°C° 0.5 mm 0 mps 696 mmHg 97%
    07:00 +22°C° 0 mm 0 mps 697 mmHg 91%
    08:00 +23°C° 0 mm 0 mps 698 mmHg 86%
    09:00 +25°C° 0 mm 0 mps 698 mmHg 80%
    10:00 +26°C° 0.5 mm 0 mps 698 mmHg 77%
    11:00 +27°C° 0.5 mm 0 mps 697 mmHg 74%
    12:00 +29°C° 0.5 mm 0 mps 697 mmHg 71%
    13:00 +28°C° 1.4 mm 0 mps 696 mmHg 73%
    14:00 +29°C° 1.4 mm 1 mps 696 mmHg 76%
    15:00 +29°C° 1.4 mm 1 mps 695 mmHg 78%
    16:00 +27°C° 1.6 mm 1 mps 695 mmHg 83%
    17:00 +24°C° 1.6 mm 0 mps 695 mmHg 88%
    18:00 +22°C° 1.6 mm 0 mps 695 mmHg 93%
    19:00 +22°C° 1 mm 0 mps 695 mmHg 93%
    20:00 +21°C° 1 mm 0 mps 696 mmHg 93%
    21:00 +21°C° 1 mm 0 mps 696 mmHg 94%
    22:00 +21°C° 0.9 mm 0 mps 696 mmHg 94%
    23:00 +21°C° 0.9 mm 0 mps 696 mmHg 95%

    Day after tomorrow, 24 September, Tuesday

    Time Temperature Precipitation Wind Pressure Humidity
    00:00 +20°C° 0.9 mm 0 mps 696 mmHg 95%
    01:00 +20°C° 0.2 mm 0 mps 696 mmHg 96%
    02:00 +20°C° 0.2 mm 0 mps 696 mmHg 96%
    03:00 +20°C° 0.2 mm 0 mps 695 mmHg 96%
    04:00 +20°C° 0 mm 0 mps 696 mmHg 96%
    05:00 +20°C° 0 mm 0 mps 696 mmHg 96%
    06:00 +20°C° 0 mm 0 mps 696 mmHg 96%
    07:00 +21°C° 0 mm 0 mps 696 mmHg 91%
    08:00 +23°C° 0 mm 0 mps 697 mmHg 85%
    09:00 +25°C° 0 mm 0 mps 697 mmHg 80%
    10:00 +26°C° 0.1 mm 0 mps 697 mmHg 75%
    11:00 +28°C° 0.1 mm 0 mps 697 mmHg 70%
    12:00 +29°C° 0.1 mm 0 mps 696 mmHg 64%
    13:00 +29°C° 0.4 mm 0 mps 696 mmHg 65%
    14:00 +29°C° 0.4 mm 0 mps 695 mmHg 66%
    15:00 +29°C° 0.4 mm 0 mps 694 mmHg 67%
    16:00 +27°C° 1.2 mm 0 mps 694 mmHg 76%
    17:00 +25°C° 1.2 mm 0 mps 694 mmHg 84%
    18:00 +23°C° 1.2 mm 0 mps 694 mmHg 92%
    19:00 +23°C° 1.6 mm 0 mps 695 mmHg 93%
    20:00 +22°C° 1.6 mm 0 mps 695 mmHg 94%
    21:00 +24°C° 1.6 mm 1 mps 696 mmHg 94%
    22:00 +24°C° 0.9 mm 1 mps 696 mmHg 95%
    23:00 +23°C° 0.9 mm 1 mps 696 mmHg 95%

    25 September, Wednesday

    Time Temperature Precipitation Wind Pressure Humidity
    00:00 +21°C° 0.9 mm 0 mps 696 mmHg 95%
    01:00 +21°C° 1.3 mm 0 mps 696 mmHg 96%
    02:00 +21°C° 1.3 mm 0 mps 695 mmHg 96%
    03:00 +21°C° 1.3 mm 0 mps 695 mmHg 96%
    04:00 +21°C° 0.3 mm 0 mps 695 mmHg 97%
    05:00 +21°C° 0.3 mm 0 mps 695 mmHg 97%
    06:00 +20°C° 0.3 mm 0 mps 696 mmHg 97%
    07:00 +22°C° 0 mm 0 mps 696 mmHg 92%
    08:00 +23°C° 0 mm 0 mps 697 mmHg 87%
    09:00 +27°C° 0 mm 1 mps 697 mmHg 83%
    10:00 +26°C° 0.4 mm 0 mps 697 mmHg 79%
    11:00 +27°C° 0.4 mm 0 mps 696 mmHg 75%
    12:00 +29°C° 0.4 mm 0 mps 696 mmHg 72%
    13:00 +28°C° 1.5 mm 0 mps 695 mmHg 75%
    14:00 +27°C° 1.5 mm 0 mps 695 mmHg 77%
    15:00 +27°C° 1.5 mm 0 mps 694 mmHg 80%
    16:00 +25°C° 2.4 mm 0 mps 694 mmHg 83%
    17:00 +24°C° 2.4 mm 0 mps 694 mmHg 87%
    18:00 +23°C° 2.4 mm 0 mps 694 mmHg 91%
    19:00 +22°C° 0.9 mm 0 mps 695 mmHg 92%
    20:00 +23°C° 0.9 mm 1 mps 695 mmHg 93%
    21:00 +23°C° 0.9 mm 1 mps 696 mmHg 94%
    22:00 +23°C° 0.3 mm 1 mps 695 mmHg 95%
    23:00 +22°C° 0.3 mm 1 mps 695 mmHg 95%

    26 September, Thursday

    Time Temperature Precipitation Wind Pressure Humidity
    00:00 +22°C° 0.3 mm 1 mps 695 mmHg 96%
    01:00 +22°C° 0.1 mm 1 mps 695 mmHg 96%
    02:00 +22°C° 0.1 mm 1 mps 694 mmHg 96%
    03:00 +19°C° 0.1 mm 0 mps 694 mmHg 96%
    04:00 +19°C° 0.2 mm 0 mps 694 mmHg 96%
    05:00 +19°C° 0.2 mm 0 mps 695 mmHg 96%
    06:00 +19°C° 0.2 mm 0 mps 695 mmHg 96%
    07:00 +21°C° 0.1 mm 0 mps 695 mmHg 91%
    08:00 +23°C° 0.1 mm 0 mps 696 mmHg 86%
    09:00 +24°C° 0.1 mm 0 mps 696 mmHg 81%
    10:00 +26°C° 0.1 mm 0 mps 696 mmHg 75%
    11:00 +29°C° 0.1 mm 1 mps 696 mmHg 69%
    12:00 +31°C° 0.1 mm 1 mps 695 mmHg 62%
    13:00 +31°C° 0.3 mm 1 mps 695 mmHg 63%
    14:00 +31°C° 0.3 mm 1 mps 694 mmHg 64%
    15:00 +30°C° 0.3 mm 1 mps 693 mmHg 65%
    16:00 +28°C° 0.7 mm 1 mps 693 mmHg 74%
    17:00 +26°C° 0.7 mm 1 mps 693 mmHg 82%
    18:00 +22°C° 0.7 mm 0 mps 693 mmHg 90%
    19:00 +22°C° 0.2 mm 0 mps 694 mmHg 91%
    20:00 +21°C° 0.2 mm 0 mps 694 mmHg 92%
    21:00 +21°C° 0.2 mm 0 mps 695 mmHg 93%
    22:00 +20°C° 0 mm 0 mps 695 mmHg 94%
    23:00 +20°C° 0 mm 0 mps 694 mmHg 95%

    27 September, Friday

    Time Temperature Precipitation Wind Pressure Humidity
    00:00 +20°C° 0 mm 0 mps 694 mmHg 95%
    01:00 +20°C° 0 mm 0 mps 694 mmHg 96%
    02:00 +19°C° 0 mm 0 mps 694 mmHg 96%
    03:00 +19°C° 0 mm 0 mps 693 mmHg 96%
    04:00 +19°C° 0 mm 0 mps 693 mmHg 96%
    05:00 +19°C° 0 mm 0 mps 694 mmHg 97%
    06:00 +19°C° 0 mm 0 mps 694 mmHg 97%
    07:00 +21°C° 0 mm 0 mps 695 mmHg 90%
    08:00 +23°C° 0 mm 0 mps 695 mmHg 84%
    09:00 +25°C° 0 mm 0 mps 696 mmHg 78%
    10:00 +26°C° 0.1 mm 0 mps 696 mmHg 73%
    11:00 +28°C° 0.1 mm 0 mps 696 mmHg 68%
    12:00 +29°C° 0.1 mm 0 mps 695 mmHg 63%
    13:00 +30°C° 1.3 mm 1 mps 695 mmHg 69%
    14:00 +29°C° 1.3 mm 1 mps 694 mmHg 75%
    15:00 +28°C° 1.3 mm 1 mps 693 mmHg 80%
    16:00 +27°C° 1.3 mm 1 mps 693 mmHg 84%
    17:00 +23°C° 1.3 mm 0 mps 694 mmHg 88%
    18:00 +22°C° 1.3 mm 0 mps 694 mmHg 92%
    19:00 +22°C° 0.5 mm 0 mps 694 mmHg 92%
    20:00 +21°C° 0.5 mm 0 mps 695 mmHg 93%
    21:00 +21°C° 0.5 mm 0 mps 695 mmHg 93%
    22:00 +21°C° 0.4 mm 0 mps 695 mmHg 94%
    23:00 +21°C° 0.4 mm 0 mps 695 mmHg 95%
    Show more